Location: Stoke Bliss
(52.2667°N, 2.5167°W)
Time: 18:54:55
(UTC+00:00)

MetOp-A - Pass Details

Date: 03 March 2021
Orbit: 819 x 821 km, 98.5° (Epoch: 17 April)

Event Time Altitude Azimuth Distance (km) Brightness Sun altitude
Exits shadow 19:27:04 -1° 158° (SSE) 3,419 7.1 -15.1°
Rises 19:27:16 0° 158° (SSE) 3,344 7.0 -15.1°
Reaches altitude 10° 19:29:36 10° 157° (SSE) 2,416 6.3 -15.5°
Maximum altitude 19:34:57 79° 72° (ENE) 844 4.1 -16.3°
Drops below altitude 10° 19:40:20 10° 347° (NNW) 2,433 6.9 -17.1°
Sets 19:42:42 0° 346° (NNW) 3,369 7.7 -17.4°
